TimeCST,TemperatureF,Dew PointF,Humidity,Sea Level PressureIn,VisibilityMPH,Wind Direction,Wind SpeedMPH,Gust SpeedMPH,PrecipitationIn,Events,Conditions,WindDirDegrees,DateUTC
12:07 AM,33.8,33.8,100,29.96,10.0,SSE,3.5,-,N/A,,Overcast,150,2012-11-08 06:07:00
12:27 AM,33.8,33.8,100,29.96,10.0,SSE,3.5,-,N/A,,Mostly Cloudy,160,2012-11-08 06:27:00
12:47 AM,33.8,33.8,100,29.97,10.0,Calm,Calm,-,N/A,,Mostly Cloudy,0,2012-11-08 06:47:00
1:07 AM,33.8,33.8,100,29.97,10.0,SE,3.5,-,N/A,,Overcast,140,2012-11-08 07:07:00
1:27 AM,35.6,33.8,93,29.97,10.0,SE,4.6,-,N/A,,Overcast,140,2012-11-08 07:27:00
1:47 AM,35.6,35.6,100,29.95,10.0,SSE,5.8,-,N/A,Rain,Rain,150,2012-11-08 07:47:00
2:27 AM,35.6,35.6,100,29.94,10.0,SSE,4.6,-,N/A,,Scattered Clouds,160,2012-11-08 08:27:00
2:47 AM,35.6,33.8,93,29.94,10.0,SSE,4.6,-,N/A,,Scattered Clouds,150,2012-11-08 08:47:00
3:07 AM,35.6,35.6,100,29.92,10.0,SE,4.6,-,N/A,,Mostly Cloudy,140,2012-11-08 09:07:00
3:27 AM,35.6,35.6,100,29.90,10.0,SE,5.8,-,N/A,,Overcast,140,2012-11-08 09:27:00
3:47 AM,35.6,35.6,100,29.89,10.0,SE,3.5,-,N/A,,Overcast,140,2012-11-08 09:47:00
4:07 AM,35.6,35.6,100,29.89,10.0,SSE,4.6,-,N/A,,Overcast,160,2012-11-08 10:07:00
4:27 AM,35.6,35.6,100,29.88,10.0,SSE,4.6,-,N/A,,Mostly Cloudy,150,2012-11-08 10:27:00
4:47 AM,35.6,35.6,100,29.86,10.0,SSE,4.6,-,N/A,,Mostly Cloudy,150,2012-11-08 10:47:00
5:07 AM,35.6,35.6,100,29.86,10.0,South,6.9,-,N/A,,Mostly Cloudy,170,2012-11-08 11:07:00
5:27 AM,35.6,35.6,100,29.86,10.0,SSE,4.6,-,N/A,,Scattered Clouds,160,2012-11-08 11:27:00
5:47 AM,35.6,35.6,100,29.85,10.0,SSE,5.8,-,N/A,,Mostly Cloudy,160,2012-11-08 11:47:00
6:07 AM,35.6,35.6,100,29.85,10.0,SSE,6.9,-,N/A,,Scattered Clouds,160,2012-11-08 12:07:00
6:27 AM,35.6,33.8,93,29.85,10.0,South,4.6,-,N/A,,Clear,170,2012-11-08 12:27:00
6:47 AM,33.8,33.8,100,29.86,10.0,South,4.6,-,N/A,,Clear,180,2012-11-08 12:47:00
7:07 AM,33.8,33.8,100,29.87,10.0,SSE,5.8,-,N/A,,Clear,160,2012-11-08 13:07:00
7:27 AM,35.6,35.6,100,29.87,10.0,SSE,5.8,-,N/A,,Clear,160,2012-11-08 13:27:00
7:47 AM,35.6,35.6,100,29.88,10.0,South,6.9,-,N/A,,Clear,170,2012-11-08 13:47:00
8:07 AM,35.6,35.6,100,29.88,10.0,South,8.1,-,N/A,,Clear,180,2012-11-08 14:07:00
8:27 AM,35.6,35.6,100,29.87,10.0,South,6.9,-,N/A,,Mostly Cloudy,170,2012-11-08 14:27:00
8:47 AM,35.6,35.6,100,29.86,10.0,South,5.8,18.4,N/A,,Overcast,170,2012-11-08 14:47:00
9:07 AM,35.6,35.6,100,29.83,5.0,SSE,6.9,-,0.01,Rain,Light Rain,160,2012-11-08 15:07:00
9:27 AM,35.6,35.6,100,29.87,10.0,Calm,Calm,-,0.02,,Mostly Cloudy,0,2012-11-08 15:27:00
9:47 AM,37.4,37.4,100,29.88,10.0,South,6.9,-,0.02,,Mostly Cloudy,190,2012-11-08 15:47:00
10:07 AM,37.4,37.4,100,29.87,10.0,South,6.9,-,N/A,,Mostly Cloudy,190,2012-11-08 16:07:00
10:27 AM,39.2,37.4,93,29.87,10.0,SSW,6.9,-,N/A,,Overcast,200,2012-11-08 16:27:00
10:47 AM,37.4,37.4,100,29.88,10.0,SSW,6.9,-,N/A,,Overcast,200,2012-11-08 16:47:00
11:07 AM,39.2,39.2,100,29.87,10.0,SSW,4.6,-,N/A,,Overcast,210,2012-11-08 17:07:00
11:27 AM,41.0,39.2,93,29.87,10.0,SSW,5.8,-,N/A,,Overcast,210,2012-11-08 17:27:00
11:47 AM,41.0,41.0,100,29.87,10.0,WSW,4.6,-,N/A,,Overcast,250,2012-11-08 17:47:00
12:07 PM,41.0,41.0,100,29.88,10.0,West,5.8,-,N/A,,Overcast,260,2012-11-08 18:07:00
12:47 PM,41.0,41.0,100,29.88,10.0,WSW,4.6,-,N/A,,Overcast,250,2012-11-08 18:47:00
1:07 PM,41.0,41.0,100,29.89,10.0,West,5.8,-,N/A,,Overcast,280,2012-11-08 19:07:00
1:27 PM,41.0,39.2,93,29.90,10.0,West,6.9,-,N/A,,Overcast,260,2012-11-08 19:27:00
1:47 PM,41.0,39.2,93,29.90,10.0,West,4.6,-,N/A,,Overcast,270,2012-11-08 19:47:00
2:07 PM,39.2,39.2,100,29.91,10.0,West,4.6,-,N/A,,Overcast,260,2012-11-08 20:07:00
2:27 PM,39.2,39.2,100,29.92,10.0,WSW,5.8,-,N/A,,Overcast,250,2012-11-08 20:27:00
2:47 PM,39.2,39.2,100,29.93,10.0,Calm,Calm,-,N/A,,Overcast,0,2012-11-08 20:47:00
3:07 PM,39.2,39.2,100,29.94,10.0,Calm,Calm,-,N/A,,Overcast,0,2012-11-08 21:07:00
3:27 PM,39.2,39.2,100,29.95,4.0,West,4.6,-,N/A,,Overcast,280,2012-11-08 21:27:00
3:47 PM,39.2,37.4,93,29.96,10.0,Calm,Calm,-,N/A,,Overcast,0,2012-11-08 21:47:00
4:07 PM,39.2,39.2,100,29.97,10.0,Calm,Calm,-,N/A,,Overcast,0,2012-11-08 22:07:00
4:27 PM,39.2,39.2,100,29.98,5.0,Calm,Calm,-,N/A,,Overcast,0,2012-11-08 22:27:00
4:47 PM,37.4,37.4,100,29.99,3.0,Calm,Calm,-,N/A,,Overcast,0,2012-11-08 22:47:00
5:07 PM,37.4,37.4,100,30.00,5.0,NW,4.6,-,N/A,,Overcast,320,2012-11-08 23:07:00
5:27 PM,39.2,37.4,93,30.01,10.0,NNW,6.9,18.4,N/A,,Overcast,340,2012-11-08 23:27:00
5:47 PM,39.2,37.4,93,30.02,10.0,North,4.6,-,N/A,,Overcast,350,2012-11-08 23:47:00
6:07 PM,39.2,37.4,93,30.03,10.0,NNW,9.2,-,N/A,,Overcast,340,2012-11-09 00:07:00
6:27 PM,37.4,37.4,100,30.04,10.0,NNW,5.8,16.1,N/A,,Overcast,340,2012-11-09 00:27:00
6:47 PM,37.4,37.4,100,30.04,10.0,NNW,8.1,-,N/A,,Overcast,340,2012-11-09 00:47:00
7:07 PM,37.4,37.4,100,30.06,10.0,North,6.9,-,N/A,,Overcast,350,2012-11-09 01:07:00
7:27 PM,37.4,37.4,100,30.06,10.0,North,8.1,-,N/A,,Overcast,350,2012-11-09 01:27:00
7:47 PM,35.6,35.6,100,30.06,10.0,NNW,5.8,-,N/A,,Overcast,340,2012-11-09 01:47:00
8:07 PM,35.6,35.6,100,30.08,10.0,North,6.9,-,N/A,,Light Drizzle,350,2012-11-09 02:07:00
8:27 PM,33.8,33.8,100,30.08,10.0,NNW,4.6,-,N/A,,Overcast,330,2012-11-09 02:27:00
8:47 PM,35.6,33.8,93,30.09,10.0,North,8.1,-,N/A,,Overcast,350,2012-11-09 02:47:00
9:07 PM,35.6,35.6,100,30.10,10.0,North,6.9,-,N/A,,Overcast,350,2012-11-09 03:07:00
9:27 PM,35.6,33.8,93,30.10,10.0,North,5.8,-,N/A,,Overcast,350,2012-11-09 03:27:00
9:47 PM,33.8,33.8,100,30.10,10.0,North,3.5,-,N/A,,Overcast,350,2012-11-09 03:47:00
10:07 PM,33.8,33.8,100,30.11,10.0,North,5.8,-,N/A,,Overcast,360,2012-11-09 04:07:00
10:27 PM,33.8,33.8,100,30.12,10.0,North,4.6,-,N/A,,Overcast,360,2012-11-09 04:27:00
10:47 PM,33.8,33.8,100,30.12,10.0,North,3.5,-,N/A,,Overcast,10,2012-11-09 04:47:00
11:07 PM,33.8,33.8,100,30.13,10.0,North,3.5,-,N/A,,Mostly Cloudy,360,2012-11-09 05:07:00
11:27 PM,32.0,32.0,100,30.13,10.0,NNE,4.6,-,N/A,,Scattered Clouds,20,2012-11-09 05:27:00
11:47 PM,32.0,32.0,100,30.13,10.0,Calm,Calm,-,N/A,,Overcast,0,2012-11-09 05:47:00